Theta_e
351 353 354 354 355 356 355 355 357 358 357 356 357 356 357 357 359 363 360 360 357 359 357 356 356 360 358 364 362 357 355 353 344 349 355 351 352 350 351 354 352 351 346
351 353 353 354 355 354 355 356 357 357 358 357 357 357 357 357 359 359 356 356 357 353 353 357 356 353 360 361 359 360 357 357 349 350 356 350 352 352 352 349 348 346 346
350 347 352 353 353 353 355 356 357 356 356 357 357 357 358 357 357 357 357 356 355 356 357 357 354 356 359 357 361 361 356 357 359 353 351 354 351 348 345 346 345 345 341
350 348 351 353 354 354 356 357 357 357 356 356 357 357 357 357 357 357 357 358 358 356 358 357 357 357 357 356 357 358 358 358 356 356 353 354 354 347 347 343 342 343 339
351 350 350 352 354 355 356 356 357 357 356 358 358 357 357 357 351 353 353 352 354 354 355 356 358 351 341 343 357 357 355 355 349 352 353 352 351 345 343 345 342 341 341
344 345 344 348 349 347 352 354 355 356 357 358 355 355 353 344 326 329 339 351 351 354 354 355 357 349 339 335 333 331 335 343 349 350 349 347 345 343 345 343 339 338 338
344 345 344 344 344 348 349 349 350 352 351 349 349 348 344 341 325 328 335 351 349 349 346 351 351 348 347 346 333 330 326 326 328 343 347 339 342 341 340 341 338 338 339
341 341 343 341 339 348 346 343 344 344 342 342 343 344 341 331 322 326 337 345 344 341 340 340 343 343 335 344 335 321 319 320 322 323 324 326 327 328 337 343 341 335 331
335 336 337 339 337 340 340 341 341 339 338 337 338 338 337 333 318 321 334 339 337 336 333 329 333 336 324 329 333 319 318 315 319 319 319 319 319 321 326 339 336 334 331
337 339 340 337 338 337 338 336 335 331 327 326 325 323 320 325 316 316 330 336 331 327 324 323 318 320 319 323 328 326 317 321 322 321 326 323 323 322 322 326 329 331 324
334 335 338 339 338 336 335 331 327 324 322 319 319 320 320 317 320 314 318 337 329 324 320 320 317 313 312 317 322 327 320 322 319 320 317 315 316 316 317 318 322 325 319
330 329 329 329 330 330 327 325 323 321 319 317 317 317 318 317 314 313 314 318 322 323 317 315 314 309 309 311 317 315 316 319 319 317 314 313 313 312 315 315 317 318 316
325 322 322 324 328 328 326 323 321 321 320 318 319 320 320 320 318 312 312 313 315 316 316 312 310 308 310 313 315 315 318 319 315 313 311 311 313 314 316 316 318 321 320
321 319 320 321 322 328 327 325 323 322 322 321 322 323 324 324 321 321 318 317 314 317 315 313 311 311 311 313 314 314 314 313 311 309 309 311 313 315 313 314 314 314 313
318 317 317 319 316 312 308 311 320 314 315 324 322 323 322 321 315 308 312 320 322 314 319 319 317 315 312 310 311 312 312 312 311 312 312 314 314 312 312 313 312 311 311
315 316 317 317 315 315 317 314 302 301 299 298 301 316 317 305 300 298 296 298 301 304 317 317 315 314 313 312 310 309 310 308 309 310 311 311 310 310 310 311 312 311 309
321 319 314 315 317 316 316 316 315 309 300 298 296 299 302 302 297 296 297 298 300 308 317 316 315 315 314 312 311 311 309 309 313 312 312 311 312 311 310 309 309 309 308
321 310 317 316 316 317 317 317 317 316 316 318 303 304 297 296 297 297 299 304 318 316 317 316 314 312 314 308 307 306 308 310 311 311 310 310 311 311 310 309 309 308 307
323 320 319 319 318 315 314 314 315 318 318 319 320 311 306 299 299 300 301 326 322 321 320 319 319 314 309 309 309 310 312 312 312 311 312 310 311 311 310 309 305 301 305
327 319 320 321 317 314 313 311 313 315 317 318 319 320 321 317 322 323 323 325 322 321 322 322 321 317 310 310 311 312 312 312 312 312 312 311 310 310 308 308 306 305 305
326 325 322 325 323 321 318 316 313 313 314 314 317 319 307 322 322 320 320 321 320 319 319 319 319 317 313 312 313 313 314 313 312 311 310 310 310 308 309 307 306 306 306
321 321 322 321 323 323 322 322 321 318 315 315 314 313 301 319 321 320 318 319 322 323 321 320 317 317 314 313 313 313 312 312 312 312 310 309 309 308 307 307 307 307 307
319 319 318 316 320 314 316 317 317 319 319 318 317 316 314 315 318 318 319 318 320 321 322 320 318 317 317 316 315 315 313 312 313 313 310 309 308 307 307 307 307 307 307
323 322 321 320 319 319 320 320 321 312 319 319 319 316 318 318 317 317 318 316 319 320 321 320 319 318 318 317 316 314 314 315 315 313 311 309 307 304 307 307 307 307 307
321 320 320 321 321 320 320 319 320 320 321 319 319 319 321 321 320 320 320 318 317 317 317 317 320 319 319 318 317 316 306 294 310 303 311 309 308 309 308 307 308 308 307
323 322 322 322 321 322 321 321 320 320 316 319 316 318 321 321 319 321 321 319 317 315 316 315 316 318 319 316 315 304 289 288 302 292 309 308 308 308 308 309 309 308 308
Wind_Speed
14 13 12 12 11 9 8 7 6 4 5 6 4 4 5 5 7 5 4 5 5 4 2 4 4 4 4 2 2 2 2 2 3 3 2 4 4 4 5 4 4 2 4
13 13 13 12 10 10 9 8 6 6 6 6 5 6 5 5 5 4 3 3 4 5 5 6 5 4 5 3 3 3 2 2 4 2 3 4 3 5 5 4 3 2 2
12 9 11 12 11 11 11 10 8 6 6 5 5 6 5 5 5 4 4 4 4 5 5 6 6 5 5 4 5 4 3 1 1 2 1 3 3 4 3 3 3 3 5
11 9 11 11 12 11 10 9 9 8 8 7 7 5 4 4 4 4 4 5 5 6 6 7 7 5 5 5 4 4 2 1 2 1 1 1 2 3 3 3 5 2 3
8 8 9 7 8 9 9 8 9 8 8 8 6 4 4 2 0 3 3 4 5 7 7 7 7 6 6 6 2 3 2 2 3 3 1 2 2 3 3 3 1 4 3
7 6 6 6 7 7 8 8 9 9 8 7 6 5 5 3 2 0 3 2 3 5 6 6 3 5 8 10 13 12 7 3 5 3 1 1 1 0 0 2 3 3 3
7 9 8 6 6 7 7 6 7 8 6 6 6 6 6 5 2 3 4 2 1 2 3 3 3 3 1 5 8 9 12 10 7 3 2 4 1 3 2 2 3 1 1
7 7 7 7 6 7 6 5 5 5 7 7 7 7 7 5 5 3 6 4 4 5 5 4 3 3 5 2 7 8 8 9 7 7 7 6 5 4 4 1 2 5 5
4 5 6 6 7 7 7 7 5 7 7 7 6 6 6 5 6 4 2 4 6 6 5 8 4 4 5 7 7 8 9 7 10 12 13 10 11 13 8 2 3 4 3
6 5 6 5 6 7 6 6 4 5 7 6 7 6 7 4 8 5 3 4 5 4 4 4 10 5 6 5 7 8 7 7 6 6 6 8 9 10 14 9 4 2 3
6 3 4 5 6 6 5 6 6 7 7 7 6 6 6 6 6 6 0 2 3 4 3 4 4 8 5 4 6 4 5 6 6 6 5 6 8 9 9 9 9 5 4
7 7 7 8 7 7 10 8 8 9 8 6 5 6 5 5 8 10 11 10 7 6 5 4 5 9 11 10 8 13 11 5 4 6 6 6 8 6 7 8 10 10 8
8 9 7 9 8 7 10 10 8 7 6 5 3 4 5 5 6 8 12 13 11 7 5 7 7 9 9 12 12 10 8 4 4 5 5 4 4 6 6 7 8 10 11
9 8 6 8 9 9 7 6 6 6 5 5 5 5 6 5 4 4 6 8 10 8 8 8 9 10 11 8 7 7 5 5 5 6 6 5 4 5 5 4 4 5 7
8 8 7 7 8 8 8 6 4 4 3 5 5 5 5 7 5 5 6 5 6 5 6 6 6 6 6 6 6 7 6 5 6 5 6 6 5 5 6 5 6 7 7
8 6 6 6 5 6 7 7 15 12 9 10 10 6 7 11 7 8 8 7 6 4 6 7 7 6 6 6 6 6 6 6 5 5 6 5 6 6 6 6 6 7 7
9 8 6 5 5 6 6 5 7 7 12 14 11 8 7 10 7 8 8 7 6 1 7 6 6 5 5 4 4 5 5 5 4 5 6 5 5 6 5 5 5 5 6
10 8 6 5 5 5 5 6 5 5 6 6 10 8 8 7 6 6 6 6 6 5 6 5 5 4 4 4 4 5 5 5 5 5 5 5 5 5 5 5 5 5 5
8 7 6 5 5 6 5 4 5 5 6 7 7 4 5 4 3 4 5 1 4 4 4 4 4 4 4 4 5 5 4 4 4 4 4 4 4 4 5 5 5 5 2
7 9 7 7 6 5 4 5 5 5 5 4 5 6 6 5 4 1 1 0 2 3 4 3 3 3 4 4 5 5 5 4 4 4 4 4 4 4 4 4 4 4 4
7 7 6 6 6 6 5 5 5 4 4 4 4 4 2 3 3 3 3 4 3 3 3 4 4 4 4 4 4 3 3 4 4 4 4 4 4 4 4 4 5 5 4
6 7 6 6 6 6 5 4 4 4 4 5 4 5 5 6 4 4 4 4 4 3 2 2 3 3 4 4 4 4 4 4 4 4 4 4 4 4 5 5 5 5 5
7 7 6 6 5 5 4 4 4 4 4 4 4 4 6 6 6 5 4 5 4 4 4 4 4 4 4 5 5 5 5 5 4 4 5 5 5 5 5 5 5 5 4
7 7 7 6 6 5 4 4 4 5 4 4 4 4 5 6 6 7 6 5 6 6 6 5 6 7 6 6 6 6 6 4 4 5 5 5 6 7 6 6 5 5 5
6 6 5 5 5 5 5 5 4 5 6 4 4 6 5 5 5 6 6 8 8 4 6 6 7 9 12 12 9 9 8 11 7 5 7 7 8 10 7 7 7 6 6
7 7 6 5 5 5 5 5 6 5 3 5 4 3 5 3 5 3 3 5 7 7 7 6 8 11 12 11 11 6 8 6 8 8 8 7 8 8 7 7 7 5 5
Wind_Direction
200 197 206 210 214 213 215 225 242 234 228 224 189 215 230 224 231 216 226 222 242 237 250 273 270 280 247 285 234 227 242 260 295 135 143 140 143 154 150 144 153 169 112
200 196 197 209 215 220 219 228 231 245 236 234 230 225 220 220 245 254 242 256 256 269 280 258 263 263 265 250 245 248 260 244 297 264 148 160 177 172 155 142 132 117 107
196 187 197 201 207 223 214 214 225 229 237 231 220 220 222 221 223 244 270 281 277 274 274 270 278 265 269 245 229 235 235 222 227 303 184 167 121 171 140 145 150 115 113
199 191 205 202 207 218 224 215 215 212 230 237 250 236 229 242 246 261 282 282 280 276 273 271 263 261 293 287 258 237 231 227 199 224 293 218 191 160 170 180 180 175 134
184 192 207 208 208 211 223 219 220 215 220 236 235 233 208 196 41 244 247 275 286 285 281 275 265 60 51 64 15 74 77 350 311 291 235 253 179 167 214 167 173 167 158
153 173 158 173 181 196 211 206 216 218 219 224 220 212 178 138 81 151 258 255 279 285 289 282 132 132 95 88 97 92 74 14 312 281 261 19 61 28 73 182 144 205 175
153 145 138 150 164 177 184 188 208 206 190 186 169 159 153 135 114 159 181 134 129 21 17 5 108 82 113 136 90 74 62 55 44 324 334 38 24 28 328 166 175 180 6
161 155 155 160 145 153 147 149 152 158 152 148 159 150 130 80 14 2 109 106 95 78 65 50 39 82 61 123 101 77 65 54 44 59 73 67 36 326 244 61 22 103 84
152 153 153 159 151 151 146 145 136 125 123 111 119 121 122 94 22 19 172 129 110 88 70 45 33 35 22 144 126 107 97 86 71 78 85 82 61 44 28 165 140 177 136
199 194 173 156 175 170 154 148 115 100 102 99 90 75 56 63 25 3 274 139 132 114 91 65 43 29 17 170 134 138 127 134 135 96 79 68 59 56 45 45 11 85 97
60 81 149 168 176 153 130 124 115 105 100 89 89 73 69 42 24 5 359 159 134 115 78 54 19 37 65 137 125 126 119 123 95 91 74 58 47 43 42 36 35 49 100
79 70 60 77 73 94 103 92 93 100 97 85 93 79 62 53 41 49 70 84 83 94 79 62 51 56 63 78 87 110 115 118 103 93 87 79 81 71 57 52 55 58 47
82 72 64 72 85 99 105 109 106 103 107 110 112 106 83 79 69 59 77 84 89 93 90 90 68 59 69 72 74 95 106 99 94 87 86 76 57 73 102 92 86 89 76
82 70 67 79 84 90 93 99 112 128 131 128 116 101 96 89 93 94 93 103 101 101 113 88 90 84 71 73 62 63 65 73 88 94 94 94 103 73 72 65 65 75 74
92 94 85 83 82 81 65 44 77 63 28 109 95 92 105 98 67 22 56 92 102 92 118 105 97 94 89 85 82 79 90 94 90 96 100 99 99 87 74 70 70 73 71
97 91 96 103 100 107 110 95 51 37 25 48 49 94 87 90 97 74 61 61 91 147 103 96 93 91 93 96 93 94 91 87 83 87 90 94 98 99 97 82 73 71 75
107 106 100 114 112 110 102 113 109 76 67 49 39 51 82 123 114 102 104 105 47 185 93 89 89 91 94 96 95 94 97 92 110 100 100 96 102 103 110 98 92 86 81
113 103 123 118 111 115 125 121 124 126 115 97 48 42 70 99 102 101 121 163 116 98 97 97 94 95 93 95 105 108 114 118 108 105 99 95 98 102 99 90 79 75 75
138 137 133 128 118 113 109 105 105 117 121 122 132 126 81 50 62 120 196 90 108 116 116 112 101 99 111 117 111 111 115 99 88 103 102 93 93 104 102 93 85 56 79
138 129 141 133 133 124 115 114 118 122 127 131 149 148 156 177 169 136 335 188 144 142 143 145 136 124 132 145 149 149 142 140 125 113 106 120 117 111 114 113 101 102 94
147 152 133 146 144 140 141 140 137 138 139 148 152 158 98 200 174 178 189 186 201 176 159 155 153 151 156 163 168 175 180 154 149 133 133 134 141 128 116 106 109 110 115
164 157 164 160 156 165 155 142 158 172 170 171 170 160 166 235 229 212 202 202 203 203 174 169 169 175 166 178 188 192 182 178 168 158 147 150 147 135 136 134 132 124 128
162 151 145 149 156 133 165 181 196 202 200 197 202 200 186 224 235 232 225 220 203 198 185 192 189 188 181 193 192 189 203 197 182 174 167 156 152 157 168 165 162 159 161
172 170 162 157 176 182 192 212 222 226 232 204 200 224 237 235 240 237 227 224 222 210 200 201 209 207 192 204 199 197 194 186 176 179 180 177 178 171 179 186 189 195 198
162 158 161 166 175 198 214 229 236 240 214 205 211 229 216 230 248 246 238 218 223 214 214 230 225 213 205 208 213 207 160 146 192 164 180 188 188 187 199 199 201 208 219
194 192 194 195 201 210 219 225 228 221 207 230 182 224 256 233 248 245 270 248 224 221 231 227 230 224 222 204 195 159 129 189 193 206 192 184 197 205 213 220 208 230 224